Location: Malvern Link
(52.1333°N, 2.3000°W)
Time: 14:46:39
(UTC+00:00)

AO-92 - Visible Passes

Search period start: 02 July 2022 00:00
Search period end: 12 July 2022 00:00
Orbit: 473 x 481 km, 97.4° (Epoch: 01 July)

Date Brightness Start Highest point End Pass type
(mag) Time Alt. Az. Time Alt. Az. Time Alt. Az.
02 Jul ? 22:26:15 13° S 22:29:14 45° W 22:32:42 10° NNW visible
03 Jul ? 21:59:17 13° SSE 22:02:29 88° ENE 22:06:05 10° NNW visible
04 Jul ? 21:32:25 10° SE 21:35:49 44° ENE 21:39:14 10° N visible
04 Jul ? 23:06:52 10° SW 23:09:20 18° W 23:11:49 10° NW visible
05 Jul ? 22:39:33 12° SSW 22:42:24 32° W 22:45:41 10° NNW visible
06 Jul ? 22:12:34 14° S 22:15:35 65° W 22:19:09 10° NNW visible
07 Jul ? 21:45:34 12° SSE 21:48:50 62° ENE 21:52:23 10° N visible
07 Jul ? 23:20:47 10° WSW 23:22:31 13° W 23:24:17 10° WNW visible
08 Jul ? 21:19:00 10° SE 21:22:11 32° ENE 21:25:25 10° N visible
08 Jul ? 22:52:47 11° SSW 22:55:32 24° W 22:58:30 10° NW visible
09 Jul ? 22:25:47 14° S 22:28:38 46° W 22:32:06 10° NNW visible
10 Jul ? 21:58:47 14° SSE 22:01:49 87° ENE 22:05:26 10° NNW visible
11 Jul ? 21:31:46 10° SE 21:35:07 43° ENE 21:38:32 10° N visible
11 Jul ? 23:06:06 10° SW 23:08:37 18° W 23:11:09 10° NW visible
